Date,TemperatureHighF,TemperatureAvgF,TemperatureLowF,DewpointHighF,DewpointAvgF,DewpointLowF,HumidityHigh,HumidityAvg,HumidityLow,PressureMaxIn,PressureMinIn,WindSpeedMaxMPH,WindSpeedAvgMPH,GustSpeedMaxMPH,PrecipitationSumIn
2012-5-6,74,66,55,5,2,-1,13,8,6,29.32,29.23,8,2,8,0.00
2012-5-7,59,55,50,52,39,5,79,58,13,29.29,29.03,8,0,8,0.63
2012-5-8,80,64,54,53,25,-1,83,37,6,29.06,29.00,9,1,9,0.63
2012-5-9,56,52,47,34,21,4,58,33,12,29.06,29.03,4,0,4,0.00
2012-5-12,68,63,59,53,44,32,80,53,28,29.44,29.38,8,0,8,0.08
2012-5-13,79,61,48,53,24,0,80,36,5,29.47,29.32,6,1,6,0.08
2012-5-14,86,65,44,41,19,0,80,30,5,29.35,29.21,10,1,10,0.00
2012-5-15,89,68,45,37,17,0,68,22,5,29.23,29.06,13,1,13,0.00
2012-5-16,70,60,44,48,16,-2,67,25,7,29.35,29.09,12,2,15,0.00
2012-5-17,76,56,36,31,12,-1,78,28,5,29.44,29.35,10,1,10,0.00
2012-5-18,83,62,42,44,16,0,79,28,5,29.41,29.29,11,1,11,0.00
2012-5-19,95,69,46,39,18,0,74,25,4,29.38,29.32,12,1,12,0.00
2012-5-20,96,74,50,46,20,6,72,24,4,29.41,29.23,12,1,12,0.00
2012-5-21,90,70,56,44,27,9,59,28,5,29.26,29.21,11,1,11,0.00
2012-5-22,77,61,51,39,25,1,63,31,8,29.26,29.15,9,0,9,0.00
2012-5-23,86,64,43,46,24,8,79,35,6,29.21,29.12,11,1,11,0.00
2012-5-24,91,73,52,53,24,9,74,27,5,29.18,29.03,15,2,17,0.00
2012-5-25,96,79,64,37,19,6,36,14,4,29.32,29.06,14,2,14,0.00
2012-5-26,76,66,58,51,29,9,67,28,8,29.50,29.32,8,0,8,0.04
2012-5-27,86,66,55,49,32,9,55,33,6,29.38,29.18,12,1,12,0.12
2012-5-28,99,80,60,62,26,4,80,29,3,29.21,28.97,15,2,15,0.00
2012-5-29,89,78,66,50,20,0,50,15,5,29.03,28.94,14,2,14,0.00
2012-5-30,76,64,50,40,15,1,60,20,6,29.15,29.03,6,1,6,0.00
2012-5-31,70,56,46,40,18,0,74,30,7,29.23,29.12,8,1,8,0.00
2012-6-1,61,53,48,53,44,30,83,72,46,29.12,28.76,8,1,8,0.43
2012-6-2,73,58,48,38,19,1,66,30,6,28.94,28.85,18,3,18,0.00
2012-6-3,81,66,55,42,20,0,62,21,5,29.03,28.91,13,2,13,0.00
2012-6-4,74,61,48,50,25,8,84,36,8,29.15,29.03,6,1,6,0.00
2012-6-5,73,61,50,46,20,0,77,30,6,29.26,29.15,11,1,11,0.00
2012-6-6,85,65,45,53,23,0,82,33,5,29.29,29.21,9,1,9,0.00
2012-6-7,89,70,53,44,23,0,68,27,5,29.29,29.23,9,1,9,0.00
2012-6-8,90,72,55,41,20,3,56,21,5,29.29,29.15,10,1,10,0.00
2012-6-9,96,79,66,39,10,1,36,9,4,29.18,29.12,9,2,9,0.00
2012-6-10,100,80,58,48,22,4,62,23,3,29.29,29.18,8,1,8,0.00
2012-6-11,81,71,61,57,40,10,63,36,7,29.23,29.09,9,1,9,0.00
2012-6-12,88,74,56,64,31,0,85,35,5,29.32,29.03,8,2,8,0.16
2012-6-13,79,61,43,41,16,-1,70,27,5,29.44,29.32,9,1,9,0.00
2012-6-14,48,46,44,35,31,28,70,57,46,29.41,29.38,0,0,0,0.00
2012-7-6,73,73,72,64,64,63,74,73,73,29.21,29.21,0,0,0,0.00
2012-7-7,99,86,69,48,20,4,45,13,3,29.23,29.18,8,1,8,0.00
2012-7-8,93,76,62,52,27,6,67,25,4,29.29,29.23,8,1,8,0.00
2012-7-9,90,74,57,56,29,9,82,32,5,29.29,29.23,10,1,10,0.00
2012-7-10,92,74,59,56,26,6,78,27,4,29.38,29.29,8,1,8,0.00
2012-7-11,61,58,56,48,44,39,72,61,45,29.38,29.38,0,0,0,0.00
2012-7-12,95,82,67,42,20,6,41,14,4,29.35,29.32,10,1,10,0.00
2012-7-13,100,80,61,53,24,4,73,24,3,29.38,29.29,13,1,13,0.00
2012-7-14,95,78,62,59,29,6,74,26,4,29.38,29.26,8,2,10,0.00
2012-7-15,97,82,70,60,33,4,66,27,3,29.29,29.18,10,1,10,0.00
2012-7-16,101,83,66,62,29,-3,78,29,2,29.26,29.09,6,0,6,0.00
2012-7-17,102,87,75,44,21,-3,32,13,2,29.12,29.00,13,2,13,0.00
2012-7-18,89,76,69,66,46,9,79,41,5,29.23,29.06,7,0,7,0.20
2012-7-19,72,68,66,62,54,40,82,62,32,29.23,29.18,8,0,8,0.24
2012-7-20,85,70,60,60,36,9,87,46,6,29.32,29.23,11,1,11,0.00
2012-8-4,93,82,74,65,40,6,68,32,4,29.15,29.09,10,2,10,0.04
2012-8-5,90,74,62,62,47,9,68,45,5,29.35,29.09,12,2,12,0.00
2012-8-6,62,56,52,46,42,38,77,59,42,29.38,29.35,0,0,0,0.00
2012-8-23,92,78,52,55,21,-9,80,21,4,29.41,29.32,9,1,9,2.76
2012-8-24,95,74,56,50,30,6,79,35,4,29.38,29.29,10,1,10,0.00
2012-8-25,98,76,58,55,30,4,78,33,3,29.38,29.35,13,2,13,0.00
2012-8-26,94,76,60,59,29,6,75,31,4,29.41,29.26,13,2,13,0.00
2012-8-27,90,76,69,65,45,9,81,47,5,29.29,29.21,6,0,6,0.16
2012-12-3,58,54,45,56,50,41,91,88,75,29.97,29.77,12,3,12,0.00
2012-12-4,60,51,39,51,28,2,81,44,18,29.91,29.74,13,2,13,0.31
2012-12-5,39,31,22,18,1,-11,71,30,14,30.21,29.91,13,2,13,0.00
2012-12-6,40,28,20,35,16,-1,93,66,18,30.21,29.83,8,1,10,0.00
2012-12-7,47,38,34,39,24,16,78,57,43,29.80,29.77,4,0,4,0.00
2012-12-8,41,36,32,36,24,16,83,61,45,29.97,29.74,4,1,5,0.12
2012-12-9,36,33,31,28,16,12,77,50,42,30.03,29.71,0,0,0,0.00
2012-12-10,36,33,31,26,10,4,68,38,30,29.71,29.56,5,1,7,0.00
2012-12-11,40,30,24,20,0,-9,63,29,14,29.97,29.71,8,2,10,0.00
2012-12-12,38,28,24,18,11,2,71,50,21,30.21,29.97,7,1,10,0.00
2012-12-13,26,24,23,20,15,14,78,69,64,30.21,30.18,0,0,0,0.00
2012-12-14,38,38,38,9,9,9,30,30,30,30.03,30.03,0,0,0,0.00
2012-12-15,44,41,40,38,22,12,83,48,30,29.88,29.59,17,5,17,0.00
2012-12-16,52,47,41,50,37,25,92,71,36,29.59,29.44,10,1,10,0.04
2012-12-17,45,40,37,35,21,11,74,45,32,29.62,29.50,6,1,7,0.00
2012-12-18,44,37,32,33,13,-3,85,42,15,29.65,29.50,7,1,9,0.00
2012-12-19,43,35,27,38,22,8,90,63,26,30.00,29.62,6,0,7,0.00
2012-12-20,45,39,31,41,27,14,89,64,33,29.97,29.09,18,5,21,0.71
2012-12-21,36,32,29,29,17,5,81,57,33,29.53,29.12,6,0,8,0.00
2012-12-22,32,30,28,8,1,-3,41,28,23,29.94,29.88,12,4,12,0.00
2012-12-23,35,28,20,18,6,-1,62,40,22,29.91,29.77,5,1,6,0.00
2012-12-24,33,27,20,28,8,0,82,47,31,29.91,29.77,6,1,8,0.00
2012-12-25,31,27,25,26,17,10,83,64,45,30.09,29.88,3,0,3,0.00
2012-12-26,32,27,25,25,16,5,84,63,36,30.12,29.74,12,3,12,0.00
2012-12-27,33,27,15,28,16,3,80,63,53,30.03,29.77,3,1,6,0.00
2012-12-28,32,18,6,31,10,-5,97,69,60,30.06,29.91,4,0,6,0.00
2012-12-29,32,28,23,29,9,0,88,48,31,29.91,29.74,4,2,10,0.00
2012-12-30,31,28,24,17,8,3,67,45,30,30.15,30.03,6,2,6,0.00
2012-12-31,35,27,20,11,6,2,60,41,30,30.00,29.83,6,2,9,0.00
2013-1-1,26,23,14,10,-5,-15,56,29,17,30.06,29.94,4,2,9,0.00